Tracking 19709 objects as of 18-Jun-2019
HD Live streaming from Space Station
objects crossing your sky now

COSMOS 1636

Track COSMOS 1636 now!
10-day predictions
COSMOS 1636 is classified as:


NORAD ID: 15618
Int'l Code: 1985-023B
Perigee: 1,481.0 km
Apogee: 1,501.6 km
Inclination: 74.1 °
Period: 115.6 minutes
Semi major axis: 7862 km
RCS: 0.6956 m2 (medium)
Launch date: March 21, 1985
Source: Commonwealth of Independent States (former USSR) (CIS)
Launch site: PLESETSK MISSILE AND SPACE COMPLEX (PKMTR)
aabbcc
Your satellite tracking list
Your tracking list is empty




NASA's NSSDC Master Catalog

Two Line Element Set (TLE):
1 15618U 85023B   19169.11387951 -.00000026  00000-0 -71697-4 0  9994
2 15618  74.0558 301.3691 0013095 275.6767 135.8207 12.45316532556928
Source of the keplerian elements: AFSPC